Showing default

DJIBOUTI-1B, 62402

Orbit data source: Space-Track

DJIBOUTI-1B, 62402 is a Djibouti payload satellite in LEO that was launched on Sat, 21 Dec 2024 UTC via an FALCON 9 launch vehicle from the Air Force Western Test Range (AFWTR). Payload-class satellites include a variety of spacecraft equipped with specific instruments for various scientific and technological missions. These include communications satellites like Starlink; space stations such as the ISS; scientific satellites like the Hubble; Earth observation satellites from companies like Planet Labs, Umbra, and HawkEye 360; GPS; miniature CubeSats for education and research; and military/defense satellites.

Loading next visibility...
Identifier
62402, 2024-247AB
Orbit
LEO
Country
Flag of DJDJ / DJI
Related business
Manufacturer
Montpellier
Mission
Operational Civil Technology
Bus & Motor
CUBESAT 1U, Unknown motor
Mass
1 kg wet, 1 kg dry
Launch date (UTC)
2024-12-21 (8 months ago)
Launch vehicle
FALCON 9
Launch site
Air Force Western Test Range (AFWTR)
Object type
Payload
Rocket body
Debris
Shape & HBR
Box, 0.1 m
Radar Cross Section
0.015 m², Small (<0.1 m²)

Expand to show TLE details & history
Last TLE update: 19 hours ago

TLE from 19 hours ago
0 DJIBOUTI-1B
1 62402U 24247AB  25241.25924683  .00028023  00000-0  91937-3 0  9993
2 62402  44.9795  74.9766 0008314 229.3208 130.6955 15.31143129 38454
Epoch: 2025-08-29T06:13Z
TLE epoch observation values (Epoch: 2025-08-29T06:13:18.926Z)
Latitude
0.00006°
Longitude
3.93734°
Altitude
476.113 km
Speed
7.627 km/s
True Right ascension
04h 59m 54s
True Declination
0° 00' 00"
Sunlit
Object was in daylight at epoch
Visualization orbit readout
Latitude
Unknown
Longitude
Unknown
Altitude
Unknown
Speed
Unknown
Apparent Right ascension
Unknown
Apparent Declination
Unknown
Sunlit
N/A
Visualization observer readout
Local Sidereal Time
16:59:55
Azimuth
Unknown
Elevation
Unknown
Doppler factor
Unknown
Orbital elements
Apogee altitude
479.713 km
Perigee altitude
468.319 km
Semi-major axis
6,852.153 km
Eccentricity
0.00083
Inclination
44.9795°
RAAN
74.9766°
Arg. of periapsis
229.3208°
True anomaly
130.76768°
Mean anomaly
130.6955°
Eccentric anomaly
130.7316°
Mean motion
3.82651 °/min
Orbital period
94.08 mins
BSTAR
0.00091937
Loading maneuver chart data...
Computing Atmospheric mass density...
Loading historical data...
Loading historical data...
Loading historical data...
Loading historical data...
Loading historical data...
Loading historical data...
Loading historical data...

Documentation

Showing up to 5 results
|